TimeCST,TemperatureF,Dew PointF,Humidity,Sea Level PressureIn,VisibilityMPH,Wind Direction,Wind SpeedMPH,Gust SpeedMPH,PrecipitationIn,Events,Conditions,WindDirDegrees,DateUTC
12:15 AM,10.4,6.8,85,30.07,10.0,Calm,Calm,-,N/A,,Clear,0,2014-01-18 06:15:00
12:35 AM,10.4,8.6,92,30.07,10.0,Calm,Calm,-,N/A,,Clear,0,2014-01-18 06:35:00
12:55 AM,10.4,6.8,85,30.07,10.0,Calm,Calm,-,N/A,,Clear,0,2014-01-18 06:55:00
1:15 AM,10.4,8.6,92,30.07,10.0,Calm,Calm,-,N/A,,Clear,0,2014-01-18 07:15:00
1:35 AM,10.4,8.6,92,30.07,10.0,South,3.5,-,N/A,,Clear,190,2014-01-18 07:35:00
1:55 AM,10.4,8.6,92,30.06,10.0,South,3.5,-,N/A,,Clear,170,2014-01-18 07:55:00
2:15 AM,10.4,8.6,92,30.06,10.0,Calm,Calm,-,N/A,,Clear,0,2014-01-18 08:15:00
2:35 AM,10.4,6.8,85,30.05,10.0,South,3.5,-,N/A,,Clear,170,2014-01-18 08:35:00
2:55 AM,10.4,5.0,79,30.05,10.0,Calm,Calm,-,N/A,,Clear,0,2014-01-18 08:55:00
3:15 AM,10.4,5.0,79,30.04,10.0,Calm,Calm,-,N/A,,Clear,0,2014-01-18 09:15:00
3:35 AM,10.4,8.6,92,30.03,10.0,SSE,3.5,-,N/A,,Clear,160,2014-01-18 09:35:00
3:55 AM,10.4,8.6,92,30.03,10.0,Calm,Calm,-,N/A,,Clear,0,2014-01-18 09:55:00
4:15 AM,12.2,6.8,79,30.02,10.0,South,3.5,-,N/A,,Mostly Cloudy,180,2014-01-18 10:15:00
4:35 AM,15.8,10.4,79,30.02,10.0,South,4.6,-,N/A,,Overcast,180,2014-01-18 10:35:00
4:55 AM,17.6,10.4,73,30.01,10.0,South,6.9,-,N/A,,Overcast,180,2014-01-18 10:55:00
5:15 AM,17.6,10.4,73,30.00,10.0,South,8.1,-,N/A,,Overcast,180,2014-01-18 11:15:00
5:35 AM,17.6,10.4,73,29.99,10.0,SSE,8.1,-,N/A,,Overcast,160,2014-01-18 11:35:00
5:55 AM,19.4,10.4,68,29.98,10.0,South,5.8,-,N/A,,Overcast,170,2014-01-18 11:55:00
6:15 AM,19.4,10.4,68,29.96,10.0,SSE,4.6,-,N/A,,Overcast,160,2014-01-18 12:15:00
6:35 AM,19.4,12.2,74,29.95,10.0,SSE,5.8,-,N/A,,Overcast,150,2014-01-18 12:35:00
6:55 AM,19.4,12.2,74,29.93,10.0,SSE,4.6,-,N/A,,Overcast,150,2014-01-18 12:55:00
7:15 AM,21.2,10.4,63,29.91,10.0,South,8.1,-,N/A,,Overcast,180,2014-01-18 13:15:00
7:35 AM,21.2,10.4,63,29.90,10.0,South,12.7,-,N/A,,Overcast,180,2014-01-18 13:35:00
7:55 AM,23.0,10.4,59,29.88,10.0,South,12.7,-,N/A,,Overcast,180,2014-01-18 13:55:00
8:15 AM,23.0,10.4,59,29.87,10.0,South,12.7,-,N/A,,Scattered Clouds,180,2014-01-18 14:15:00
8:35 AM,24.8,10.4,54,29.85,10.0,South,16.1,20.7,N/A,,Clear,180,2014-01-18 14:35:00
8:55 AM,24.8,10.4,54,29.84,10.0,South,15.0,-,N/A,,Clear,180,2014-01-18 14:55:00
9:15 AM,26.6,10.4,51,29.82,10.0,South,16.1,-,N/A,,Clear,190,2014-01-18 15:15:00
9:35 AM,28.4,12.2,51,29.81,10.0,South,18.4,25.3,N/A,,Clear,180,2014-01-18 15:35:00
9:55 AM,28.4,12.2,51,29.80,10.0,South,19.6,26.5,N/A,,Clear,170,2014-01-18 15:55:00
10:15 AM,30.2,14.0,51,29.81,10.0,SSW,12.7,24.2,N/A,,Partly Cloudy,200,2014-01-18 16:15:00
10:35 AM,32.0,14.0,48,29.78,10.0,South,20.7,24.2,N/A,,Partly Cloudy,190,2014-01-18 16:35:00
10:55 AM,33.8,15.8,48,29.76,10.0,SSW,18.4,26.5,N/A,,Scattered Clouds,200,2014-01-18 16:55:00
11:15 AM,33.8,15.8,48,29.75,10.0,SSW,17.3,26.5,N/A,,Clear,200,2014-01-18 17:15:00
11:35 AM,35.6,15.8,44,29.73,10.0,SSW,16.1,-,N/A,,Clear,210,2014-01-18 17:35:00
11:55 AM,37.4,15.8,41,29.73,10.0,SW,15.0,-,N/A,,Clear,220,2014-01-18 17:55:00
12:15 PM,39.2,15.8,39,29.72,10.0,SSW,11.5,19.6,N/A,,Clear,210,2014-01-18 18:15:00
12:35 PM,39.2,15.8,39,29.71,10.0,SW,10.4,-,N/A,,Scattered Clouds,220,2014-01-18 18:35:00
12:55 PM,42.8,17.6,36,29.71,10.0,WSW,12.7,-,N/A,,Overcast,240,2014-01-18 18:55:00
1:15 PM,41.0,17.6,39,29.72,10.0,WSW,8.1,18.4,N/A,,Overcast,250,2014-01-18 19:15:00
1:35 PM,42.8,17.6,36,29.71,10.0,WSW,11.5,17.3,N/A,,Overcast,250,2014-01-18 19:35:00
1:55 PM,42.8,23.0,46,29.72,10.0,West,12.7,21.9,N/A,,Mostly Cloudy,270,2014-01-18 19:55:00
2:15 PM,44.6,26.6,49,29.72,10.0,West,11.5,21.9,N/A,,Scattered Clouds,270,2014-01-18 20:15:00
2:35 PM,44.6,26.6,49,29.73,10.0,West,9.2,17.3,N/A,,Mostly Cloudy,280,2014-01-18 20:35:00
2:55 PM,44.6,26.6,49,29.73,10.0,WSW,13.8,18.4,N/A,,Mostly Cloudy,250,2014-01-18 20:55:00
3:15 PM,44.6,26.6,49,29.74,10.0,West,9.2,-,N/A,,Overcast,270,2014-01-18 21:15:00
3:35 PM,44.6,26.6,49,29.75,10.0,West,5.8,-,N/A,,Mostly Cloudy,280,2014-01-18 21:35:00
3:55 PM,44.6,26.6,49,29.75,10.0,West,4.6,-,N/A,,Overcast,280,2014-01-18 21:55:00
4:15 PM,44.6,26.6,49,29.76,10.0,WNW,5.8,-,N/A,,Mostly Cloudy,290,2014-01-18 22:15:00
4:35 PM,42.8,26.6,53,29.76,10.0,WSW,3.5,-,N/A,,Mostly Cloudy,240,2014-01-18 22:35:00
4:55 PM,42.8,26.6,53,29.77,10.0,WSW,6.9,-,N/A,,Mostly Cloudy,240,2014-01-18 22:55:00
5:15 PM,42.8,28.4,57,29.78,10.0,WNW,10.4,28.8,N/A,,Overcast,290,2014-01-18 23:15:00
5:35 PM,42.8,28.4,57,29.78,10.0,West,5.8,-,N/A,,Overcast,270,2014-01-18 23:35:00
5:55 PM,42.8,28.4,57,29.79,10.0,West,5.8,-,N/A,,Mostly Cloudy,260,2014-01-18 23:55:00
6:15 PM,42.8,28.4,57,29.80,10.0,West,9.2,21.9,N/A,,Mostly Cloudy,270,2014-01-19 00:15:00
6:35 PM,41.0,30.2,65,29.83,10.0,WNW,20.7,38.0,N/A,,Overcast,300,2014-01-19 00:35:00
6:55 PM,35.6,30.2,81,29.84,10.0,NW,17.3,25.3,N/A,,Overcast,310,2014-01-19 00:55:00
7:15 PM,35.6,30.2,81,29.85,10.0,WNW,11.5,17.3,N/A,,Overcast,300,2014-01-19 01:15:00
7:35 PM,35.6,30.2,81,29.86,10.0,WNW,8.1,-,N/A,,Overcast,300,2014-01-19 01:35:00
7:55 PM,37.4,30.2,75,29.87,10.0,WNW,11.5,17.3,N/A,,Overcast,300,2014-01-19 01:55:00
8:15 PM,37.4,28.4,70,29.87,10.0,WNW,16.1,23.0,N/A,,Overcast,300,2014-01-19 02:15:00
8:35 PM,35.6,26.6,70,29.88,10.0,WNW,17.3,24.2,N/A,,Overcast,300,2014-01-19 02:35:00
8:55 PM,35.6,24.8,65,29.89,10.0,WNW,17.3,23.0,N/A,,Overcast,300,2014-01-19 02:55:00
9:15 PM,35.6,24.8,65,29.89,10.0,WNW,16.1,24.2,N/A,,Overcast,300,2014-01-19 03:15:00
9:35 PM,35.6,24.8,65,29.90,10.0,NW,15.0,20.7,N/A,,Overcast,310,2014-01-19 03:35:00
9:55 PM,33.8,24.8,70,29.91,10.0,NW,11.5,19.6,N/A,,Overcast,310,2014-01-19 03:55:00
10:15 PM,33.8,24.8,70,29.92,10.0,NW,17.3,25.3,N/A,,Overcast,310,2014-01-19 04:15:00
10:35 PM,33.8,24.8,70,29.93,10.0,WNW,18.4,24.2,N/A,,Overcast,300,2014-01-19 04:35:00
10:55 PM,33.8,24.8,70,29.94,10.0,NW,12.7,21.9,N/A,,Overcast,310,2014-01-19 04:55:00
11:15 PM,33.8,24.8,70,29.95,10.0,NW,12.7,25.3,N/A,,Overcast,310,2014-01-19 05:15:00
11:35 PM,32.0,24.8,75,29.96,10.0,NW,12.7,-,N/A,,Overcast,320,2014-01-19 05:35:00
11:55 PM,30.2,24.8,80,29.97,10.0,WNW,17.3,28.8,N/A,,Overcast,300,2014-01-19 05:55:00